Regional Weather Roundup
Issued by NWS

Home | Current Version | Previous Version | Text Only | Print | Product List | Glossary Off
Versions: 1 2 3 4 5 6 7 8 9 10 11 12 13 14 15 16 17 18 19 20 21 22 23 24 25 26 27 28 29 30 31 32 33 34 35 36 37 38 39 40 41 42 43 44 45 46 47 48 49 50

000
ASUS43 KFSD 260210
RWRSD

WEATHER ROUNDUP FOR SOUTH DAKOTA
NATIONAL WEATHER SERVICE SIOUX FALLS SD
900 PM CDT WED APR 25 2018

NOTE: "FAIR" INDICATES FEW OR NO CLOUDS BELOW 12,000 FEET WITH NO
SIGNIFICANT WEATHER AND/OR OBSTRUCTIONS TO VISIBILITY.


SDZ001>005-009-010-012>017-260300-
NORTHWEST AND NORTH CENTRAL SOUTH DAKOTA

CITY           SKY/WX    TMP DP  RH WIND       PRES   REMARKS
BUFFALO          N/A     59  28  30 NW18      29.84S
FAITH            N/A     58  35  42 W7        29.85S
MOBRIDGE       CLOUDY    55  35  47 SE7       29.81F
$$

SDZ012>016-024>037-041>051-057-063-072>074-260300-
SOUTHWEST AND SOUTH CENTRAL SOUTH DAKOTA

CITY           SKY/WX    TMP DP  RH WIND       PRES   REMARKS
RAPID CTY ARPT CLOUDY    63  24  22 SW7       29.85S
PIERRE         CLOUDY    54  32  43 SE12      29.85F
CUSTER         MOCLDY    53  18  25 CALM      29.93F
ELLSWORTH AFB  CLOUDY    65  27  23 NW5       29.86R
PHILIP         CLOUDY    57  30  35 E6        29.83F
PINE RIDGE     CLOUDY    58  27  30 S10       29.89F
SPEARFISH      FAIR      57  30  35 NW9G15    29.97R
WINNER         FAIR      55  30  38 S10       29.91F
$$

SDZ004>011-016>023-039-040-260300-
NORTHEAST SOUTH DAKOTA

CITY           SKY/WX    TMP DP  RH WIND       PRES   REMARKS
ABERDEEN       MOCLDY    50  35  56 S10       29.89F
WATERTOWN      CLOUDY    45  34  65 S9        29.93F
BROOKINGS      CLOUDY    50  34  54 S7        29.97F
SISSETON         N/A     50  38  63 S10       29.90S
$$

SDZ017-020-022-023-036>040-048>070-260300-
SOUTHEAST SOUTH DAKOTA

CITY           SKY/WX    TMP DP  RH WIND       PRES   REMARKS
SIOUX FALLS    CLOUDY    49  32  52 CALM      29.99F
HURON          MOCLDY    54  35  48 S9        29.93F
CHAMBERLAIN    MOCLDY    51  34  51 S9        29.92F
MITCHELL       MOCLDY    52  37  56 S8        29.96F
YANKTON        CLOUDY    55  27  34 SE6       30.00F
$$

ABBREVIATIONS USED IN REMARKS
   TC - TEMPERATURE IN CELSIUS
  WCI - WIND CHILL INDEX
   HX - HEAT INDEX
  VSB - VISIBILITY





USA.gov is the U.S. government's official web portal to all federal, state and local government web resources and services.